EW8742 Weather Reports


time (UTC)temp
C
wind
direction
speed
KPH
gust
KPH
rain 1hr
cm
rain 24hr
cm
rain mn
cm
humidity
%
barometer
mb
20260507062334 10 327 3.2 11.3 0.00 0.00 0.00 87 1014.0
20260507061832 10 178 3.2 11.3 0.00 0.00 0.00 88 1013.8
20260507061332 10 314 3.2 11.3 0.00 0.00 0.00 90 1013.8
20260507060334 9 39 4.8 11.3 0.00 0.00 0.00 92 1013.7
20260507055331 8 11 4.8 11.3 0.00 0.00 0.00 94 1013.6
20260507054831 7 346 4.8 12.9 0.00 0.00 0.00 94 1013.6
20260507053331 6 28 3.2 6.4 0.00 0.00 0.00 94 1013.5
20260507052332 6 351 3.2 6.4 0.00 0.00 0.00 94 1013.5
20260507051832 5 348 3.2 6.4 0.00 0.00 0.00 93 1013.5
20260507051332 5 344 3.2 6.4 0.00 0.00 0.00 93 1013.4
20260507050832 5 1 3.2 6.4 0.00 0.00 0.00 93 1013.3
20260507050331 5 11 1.6 6.4 0.00 0.00 0.00 93 1013.2
20260507045831 5 1 1.6 6.4 0.00 0.00 0.00 93 1013.1
20260507045331 5 336 3.2 6.4 0.00 0.00 0.00 93 1013.1
20260507044833 5 1 3.2 6.4 0.00 0.00 0.00 93 1013.0
20260507044332 5 35 3.2 6.4 0.00 0.00 0.00 93 1013.0
20260507043832 4 35 3.2 6.4 0.00 0.00 0.00 93 1013.0
20260507043332 4 72 3.2 6.4 0.00 0.00 0.00 93 1012.9
20260507042833 4 59 1.6 6.4 0.00 0.00 0.00 93 1012.9
20260507042332 4 331 3.2 6.4 0.00 0.00 0.00 92 1012.9
20260507041831 3 321 1.6 6.4 0.00 0.00 0.00 92 1012.8
20260507041332 3 327 1.6 4.8 0.00 0.00 0.00 92 1012.8
20260507040832 3 1 1.6 4.8 0.00 0.00 0.00 92 1012.8
20260507040335 3 331 1.6 4.8 0.00 0.00 0.00 91 1012.8
20260507035829 3 336 1.6 3.2 0.00 0.00 0.00 91 1012.7
20260507034829 3 324 3.2 6.4 0.00 0.00 0.00 91 1012.6
20260507034325 3 340 3.2 6.4 0.00 0.00 0.00 91 1012.6
20260507033824 3 324 3.2 6.4 0.00 0.00 0.00 90 1012.6
20260507032821 3 327 3.2 6.4 0.00 0.00 0.00 90 1012.5
20260507032319 4 314 3.2 8.0 0.00 0.00 0.00 90 1012.6
20260507031819 4 349 3.2 8.0 0.00 0.00 0.00 90 1012.5
20260507030813 4 331 3.2 9.7 0.00 0.00 0.00 90 1012.5
20260507030313 4 13 1.6 6.4 0.00 0.00 0.00 90 1012.4
20260507025807 5 20 1.6 6.4 0.00 0.00 0.00 90 1012.4
20260507025307 5 89 1.6 6.4 0.00 0.00 0.00 89 1012.4
20260507024807 5 1 1.6 6.4 0.00 0.00 0.00 89 1012.5
20260507024306 5 336 1.6 6.4 0.00 0.00 0.00 89 1012.4
20260507023304 5 327 3.2 6.4 0.00 0.00 0.00 89 1012.4
20260507022800 5 340 3.2 6.4 0.00 0.00 0.00 89 1012.4
20260507022300 5 20 3.2 6.4 0.00 0.00 0.00 89 1012.4
20260507021801 5 321 3.2 8.0 0.00 0.00 0.00 88 1012.4
20260507021257 5 349 3.2 8.0 0.00 0.00 0.00 89 1012.3
20260507020757 5 25 3.2 6.4 0.00 0.00 0.00 89 1012.2
20260507020259 5 20 3.2 8.0 0.00 0.00 0.00 89 1012.1
20260507015755 5 20 3.2 11.3 0.00 0.00 0.00 89 1012.2
20260507014255 5 336 4.8 11.3 0.00 0.00 0.00 89 1012.1
20260507013753 5 49 3.2 6.4 0.00 0.00 0.00 89 1012.1
20260507013253 5 340 3.2 6.4 0.00 0.00 0.00 89 1012.1
20260507012751 5 323 3.2 8.0 0.00 0.00 0.00 89 1012.1
20260507011751 5 11 3.2 8.0 0.00 0.00 0.00 89 1012.0
20260507011250 5 350 3.2 8.0 0.00 0.00 0.00 89 1012.1
20260507010749 5 1 3.2 8.0 0.00 0.00 0.00 89 1012.0
20260507010255 5 1 3.2 8.0 0.00 0.00 0.00 89 1012.0
20260507005747 5 347 3.2 8.0 0.00 0.00 0.00 89 1012.0
20260507005247 5 1 3.2 8.0 0.00 0.00 0.00 89 1012.0
20260507004747 5 1 3.2 6.4 0.00 0.00 0.00 89 1012.0
20260507004246 5 331 4.8 9.7 0.00 0.00 0.00 89 1011.9
20260507003745 5 1 4.8 9.7 0.00 0.00 0.00 89 1011.9
20260507003245 5 342 4.8 9.7 0.00 0.00 0.00 89 1011.9
20260507002740 5 9 4.8 9.7 0.00 0.00 0.00 89 1011.8
20260507001746 5 327 3.2 6.4 0.00 0.00 0.00 89 1011.8
20260507001237 5 349 3.2 8.0 0.00 0.00 0.00 89 1011.8
20260507000739 5 319 3.2 8.0 0.00 0.00 0.00 89 1011.8
20260507000237 5 9 3.2 8.0 0.00 0.00 0.00 89 1011.8
20260506235235 5 1 3.2 6.4 0.00 0.00 0.00 89 1011.8
20260506234229 5 28 3.2 8.0 0.00 0.00 0.00 89 1011.8
20260506233731 5 37 3.2 8.0 0.00 0.00 0.00 89 1011.8
20260506233231 5 321 3.2 8.0 0.00 0.00 0.00 89 1011.7
20260506232727 5 32 3.2 9.7 0.00 0.00 0.00 89 1011.7
20260506232228 5 325 3.2 9.7 0.00 0.00 0.00 89 1011.8
20260506231728 5 1 3.2 8.0 0.00 0.00 0.00 89 1011.7
20260506231227 5 41 3.2 8.0 0.00 0.00 0.00 89 1011.7
20260506230725 5 334 3.2 8.0 0.00 0.00 0.00 89 1011.8
20260506230225 5 344 3.2 8.0 0.00 0.00 0.00 89 1011.6
20260506225221 5 1 3.2 4.8 0.00 0.00 0.00 89 1011.7
20260506224222 5 353 3.2 4.8 0.00 0.00 0.00 88 1011.8
20260506223720 6 1 3.2 6.4 0.00 0.00 0.00 88 1011.7
20260506223219 6 324 3.2 6.4 0.00 0.00 0.00 88 1011.7
20260506222705 6 28 3.2 6.4 0.00 0.00 0.00 88 1011.7
20260506222205 6 25 1.6 6.4 0.00 0.00 0.00 87 1011.7
20260506221702 6 344 3.2 6.4 0.00 0.00 0.00 87 1011.6
20260506221200 6 28 3.2 8.0 0.00 0.00 0.00 87 1011.6
20260506220700 6 1 3.2 8.0 0.00 0.00 0.00 87 1011.7
20260506220201 6 303 3.2 8.0 0.00 0.00 0.00 87 1011.6
20260506215659 6 40 3.2 8.0 0.00 0.00 0.00 86 1011.6
20260506215201 6 46 3.2 8.0 0.00 0.00 0.00 86 1011.6
20260506213656 7 20 4.8 8.0 0.00 0.00 0.00 86 1011.5
20260506213154 7 1 4.8 9.7 0.00 0.00 0.00 85 1011.5
20260506212653 7 1 3.2 12.9 0.00 0.00 0.00 85 1011.5
20260506212153 7 1 3.2 12.9 0.00 0.00 0.00 85 1011.5
20260506211151 7 353 4.8 9.7 0.00 0.00 0.00 84 1011.5
20260506210650 7 35 4.8 9.7 0.00 0.00 0.00 84 1011.4
20260506210150 7 353 4.8 9.7 0.00 0.00 0.00 84 1011.4
20260506205649 7 178 4.8 8.0 0.00 0.00 0.00 83 1011.4
20260506205149 7 338 4.8 11.3 0.00 0.00 0.00 83 1011.4
20260506204647 7 344 4.8 11.3 0.00 0.00 0.00 83 1011.4
20260506203647 7 13 4.8 8.0 0.00 0.00 0.00 83 1011.4
20260506203145 8 340 4.8 8.0 0.00 0.00 0.00 82 1011.3
20260506202145 8 25 4.8 9.7 0.00 0.00 0.00 81 1011.3
20260506201644 8 334 4.8 12.9 0.00 0.00 0.00 81 1011.2
20260506201143 8 335 4.8 12.9 0.00 0.00 0.00 80 1011.3
20260506200643 8 11 6.4 12.9 0.00 0.00 0.00 80 1011.1
20260506200141 8 46 6.4 14.5 0.00 0.00 0.00 79 1011.1
20260506195640 8 1 6.4 14.5 0.00 0.00 0.00 79 1011.0
20260506195141 8 346 4.8 14.5 0.00 0.00 0.00 79 1011.1
20260506194639 8 337 4.8 14.5 0.00 0.00 0.00 78 1010.9
20260506194139 8 20 6.4 14.5 0.00 0.00 0.00 78 1011.0
20260506193638 9 334 6.4 12.9 0.00 0.00 0.00 77 1010.8
20260506193137 9 23 6.4 12.9 0.00 0.00 0.00 76 1010.9
20260506192637 9 345 6.4 14.5 0.00 0.00 0.00 76 1010.9
20260506192136 9 15 6.4 16.1 0.00 0.00 0.00 76 1010.7
20260506191634 9 354 6.4 16.1 0.00 0.00 0.00 76 1010.8
20260506191135 10 39 6.4 16.1 0.00 0.00 0.00 76 1010.8
20260506190144 10 23 8.0 16.1 0.00 0.00 0.00 75 1010.6
20260506185636 10 347 8.0 16.1 0.00 0.00 0.00 75 1010.5
20260506185134 10 350 8.0 16.1 0.00 0.00 0.00 75 1010.5
20260506184133 10 63 8.0 17.7 0.00 0.00 0.00 75 1010.4
20260506183633 10 325 6.4 17.7 0.00 0.00 0.00 75 1010.3
20260506183128 10 329 6.4 17.7 0.00 0.00 0.00 75 1010.3
20260506182629 10 314 6.4 14.5 0.00 0.00 0.00 74 1010.2
20260506182129 11 353 6.4 14.5 0.00 0.00 0.00 74 1010.1
20260506181622 11 28 6.4 14.5 0.00 0.00 0.00 73 1010.0
20260506181124 11 23 4.8 11.3 0.00 0.00 0.00 73 1010.0
20260506180119 11 25 4.8 16.1 0.00 0.00 0.00 72 1009.8
20260506173110 12 354 4.8 19.3 0.00 0.00 0.00 71 1009.6
20260506172108 12 314 3.2 9.7 0.00 0.00 0.00 73 1009.5
20260506171608 11 117 3.2 9.7 0.00 0.00 0.00 73 1009.4
20260506171107 11 135 1.6 8.0 0.00 0.00 0.00 73 1009.6
20260506170620 11 145 1.6 8.0 0.00 0.00 0.00 72 1009.5
20260506165600 11 108 3.2 8.0 0.00 0.00 0.00 72 1009.5
20260506164600 11 112 4.8 11.3 0.00 0.00 0.00 72 1009.4
20260506164058 11 126 1.6 9.7 0.00 0.00 0.00 72 1009.4
20260506163556 11 46 1.6 6.4 0.00 0.00 0.00 71 1009.4
20260506163056 11 46 1.6 6.4 0.00 0.00 0.00 70 1009.4
20260506161552 11 150 3.2 8.0 0.00 0.00 0.00 71 1009.4
20260506160548 11 152 4.8 9.7 0.00 0.00 0.00 70 1009.4
20260506160059 12 132 3.2 8.0 0.00 0.00 0.00 69 1009.4
20260506155547 12 197 3.2 6.4 0.00 0.00 0.00 70 1009.4
20260506154549 12 110 3.2 8.0 0.00 0.00 0.00 70 1009.4
20260506154048 12 127 4.8 11.3 0.00 0.00 0.00 72 1009.4
20260506153548 12 163 4.8 11.3 0.00 0.00 0.00 71 1009.4
20260506153046 11 131 3.2 8.0 0.00 0.00 0.00 71 1009.3
20260506152547 11 142 3.2 9.7 0.00 0.00 0.00 70 1009.3
20260506152048 11 122 3.2 9.7 0.00 0.00 0.00 70 1009.3
20260506151546 11 135 3.2 8.0 0.00 0.00 0.00 70 1009.2
20260506151046 11 120 4.8 9.7 0.00 0.00 0.00 71 1009.3
20260506145044 11 63 4.8 9.7 0.00 0.00 0.00 70 1009.1
20260506144042 12 142 1.6 9.7 0.00 0.00 0.00 70 1009.1
20260506143542 12 128 1.6 8.0 0.00 0.00 0.00 70 1009.1
20260506142541 11 223 3.2 12.9 0.00 0.00 0.00 69 1009.1
20260506142041 11 155 1.6 12.9 0.00 0.00 0.00 69 1009.2
20260506141540 11 89 3.2 8.0 0.00 0.00 0.00 68 1009.2
20260506140534 12 13 1.6 9.7 0.00 0.00 0.00 68 1009.1
20260506140034 11 89 3.2 6.4 0.00 0.00 0.00 70 1009.1
20260506135534 11 124 3.2 8.0 0.00 0.00 0.00 70 1009.1
20260506135032 11 135 3.2 9.7 0.00 0.00 0.00 70 1009.1
20260506134533 11 115 3.2 11.3 0.00 0.00 0.00 70 1009.1
20260506134030 11 295 4.8 14.5 0.00 0.00 0.00 70 1009.1
20260506133532 11 168 4.8 14.5 0.00 0.00 0.00 70 1009.1
20260506133030 11 129 6.4 14.5 0.00 0.00 0.00 70 1009.2
20260506132025 11 46 3.2 11.3 0.00 0.00 0.00 70 1009.2
20260506131524 11 124 4.8 11.3 0.00 0.00 0.00 69 1009.2
20260506131021 11 105 4.8 12.9 0.00 0.00 0.00 70 1009.1
20260506130520 11 89 4.8 12.9 0.00 0.00 0.00 67 1009.2
20260506130020 11 89 4.8 14.5 0.00 0.00 0.00 67 1009.2
20260506125517 11 98 4.8 14.5 0.00 0.00 0.00 67 1009.2
20260506125016 11 135 4.8 11.3 0.00 0.00 0.00 65 1009.1
20260506124517 11 128 4.8 14.5 0.00 0.00 0.00 65 1009.2
20260506124010 11 131 4.8 14.5 0.00 0.00 0.00 63 1009.1
20260506123510 11 103 4.8 11.3 0.00 0.00 0.00 64 1009.1
20260506123010 11 117 3.2 9.7 0.00 0.00 0.00 63 1009.0
20260506122506 11 152 4.8 11.3 0.00 0.00 0.00 64 1009.1
20260506122008 11 59 4.8 11.3 0.00 0.00 0.00 64 1009.1
20260506121507 11 40 4.8 11.3 0.00 0.00 0.00 64 1009.1
20260506121004 12 60 4.8 11.3 0.00 0.00 0.00 64 1009.0
20260506120504 12 122 4.8 11.3 0.00 0.00 0.00 63 1009.0
20260506115505 12 89 4.8 14.5 0.00 0.00 0.00 62 1008.9
20260506115004 12 117 4.8 12.9 0.00 0.00 0.00 63 1008.8
20260506114505 12 126 4.8 12.9 0.00 0.00 0.00 63 1008.8
20260506114004 12 51 4.8 9.7 0.00 0.00 0.00 64 1008.8
20260506113006 12 98 4.8 16.1 0.00 0.00 0.00 61 1008.7
20260506112504 12 171 4.8 16.1 0.00 0.00 0.00 61 1008.8
20260506112001 12 28 4.8 12.9 0.00 0.00 0.00 60 1008.8
20260506111500 11 135 4.8 11.3 0.00 0.00 0.00 61 1008.8
20260506111000 11 114 3.2 9.7 0.00 0.00 0.00 62 1008.7
20260506110458 11 135 3.2 11.3 0.00 0.00 0.00 65 1008.7
20260506105958 11 35 3.2 11.3 0.00 0.00 0.00 64 1008.7
20260506105459 11 117 4.8 11.3 0.00 0.00 0.00 63 1008.8
20260506104957 11 117 4.8 11.3 0.00 0.00 0.00 65 1008.8
20260506104456 11 35 4.8 16.1 0.00 0.00 0.00 63 1008.7
20260506103959 11 46 4.8 16.1 0.00 0.00 0.00 63 1008.7
20260506103455 11 63 4.8 11.3 0.00 0.00 0.00 63 1008.7
20260506102954 11 95 4.8 9.7 0.00 0.00 0.00 64 1008.6
20260506101953 11 8 4.8 12.9 0.00 0.00 0.00 63 1008.5
20260506101453 11 68 6.4 12.9 0.00 0.00 0.00 63 1008.5
20260506100952 11 44 6.4 12.9 0.00 0.00 0.00 63 1008.5
20260506100446 11 60 4.8 11.3 0.00 0.00 0.00 63 1008.5
20260506095946 11 74 4.8 12.9 0.00 0.00 0.00 64 1008.5
20260506095446 11 117 4.8 12.9 0.00 0.00 0.00 65 1008.5
20260506094941 11 46 6.4 14.5 0.00 0.00 0.00 64 1008.5
20260506094439 11 76 4.8 14.5 0.00 0.00 0.00 63 1008.4
20260506093941 11 96 3.2 9.7 0.00 0.00 0.00 66 1008.4
20260506093434 11 1 3.2 8.0 0.00 0.00 0.00 67 1008.4
20260506092934 11 102 3.2 8.0 0.00 0.00 0.00 66 1008.3
20260506092432 11 81 3.2 8.0 0.00 0.00 0.00 67 1008.3
20260506091928 11 75 4.8 8.0 0.00 0.00 0.00 67 1008.4
20260506091428 11 51 4.8 8.0 0.00 0.00 0.00 67 1008.3
20260506090928 10 89 4.8 8.0 0.00 0.00 0.00 67 1008.3
20260506090426 10 108 4.8 16.1 0.00 0.00 0.00 67 1008.3
20260506085925 10 54 4.8 16.1 0.00 0.00 0.00 67 1008.2
20260506084923 10 135 4.8 12.9 0.00 0.00 0.00 67 1008.2
20260506084424 10 102 4.8 12.9 0.00 0.00 0.00 68 1008.1
20260506083931 10 20 4.8 12.9 0.00 0.00 0.00 69 1008.1
20260506083421 10 60 4.8 12.9 0.00 0.00 0.00 70 1008.6
20260506082921 10 46 4.8 16.1 0.00 0.00 0.00 71 1008.0
20260506082421 10 46 4.8 16.1 0.00 0.00 0.00 71 1007.9
20260506081916 10 117 4.8 14.5 0.00 0.00 0.00 73 1007.9
20260506081417 10 76 4.8 12.9 0.00 0.00 0.00 75 1007.9
20260506080916 10 21 4.8 12.9 0.00 0.00 0.00 76 1007.8
20260506080425 10 210 4.8 12.9 0.00 0.00 0.00 75 1007.9
20260506073413 10 115 3.2 12.9 0.00 0.00 0.00 79 1007.8
20260506072915 10 53 4.8 12.9 0.00 0.00 0.00 79 1007.9
20260506072414 10 63 4.8 12.9 0.00 0.00 0.00 81 1007.8
20260506071907 10 351 4.8 12.9 0.00 0.00 0.00 81 1007.8
20260506071421 10 102 4.8 11.3 0.00 0.00 0.00 82 1007.7
20260506070905 10 157 3.2 11.3 0.00 0.00 0.00 82 1007.7
20260506070406 10 336 4.8 16.1 0.00 0.00 0.00 83 1007.7